Temp
33 32 32 30 28 27 26 25 24 22 20 18 18 19 19 19 19 18 19 19 20 20 21 21 21 20 19 18 18 18 18 19 19
33 32 32 31 29 27 26 25 24 23 21 19 19 19 19 20 20 19 19 19 19 19 20 21 21 20 19 19 18 18 19 19 19
33 32 31 31 29 28 27 25 24 23 22 20 20 19 19 19 18 20 19 19 19 19 19 20 20 19 19 19 19 19 19 18 19
33 32 31 30 29 28 27 25 25 23 23 21 20 20 20 19 19 18 19 19 19 19 19 19 19 19 19 19 19 19 19 19 19
32 31 30 29 28 28 27 26 25 24 23 23 21 21 20 20 19 19 19 18 19 18 19 19 19 19 18 18 19 19 19 18 19
32 30 29 29 28 27 27 26 25 25 24 23 23 22 21 20 20 20 20 19 19 19 18 18 18 18 19 18 18 18 19 19 18
31 30 29 28 28 27 26 26 25 25 24 24 23 22 21 20 20 20 20 20 19 19 19 18 18 18 18 18 18 18 18 18 18
31 30 29 28 28 26 25 25 24 24 24 23 23 22 21 22 21 20 20 20 19 19 19 19 19 18 18 18 18 19 19 19 19
31 30 29 28 27 26 25 24 23 23 23 23 23 22 21 21 21 21 20 20 20 19 19 18 19 18 18 18 19 20 20 20 18
29 28 29 28 27 26 25 24 23 22 22 22 22 21 21 21 20 20 19 19 19 19 18 19 20 19 19 19 18 21 20 20 19
27 28 27 27 26 26 25 24 23 22 22 21 21 20 20 20 20 19 19 19 18 18 18 19 19 19 20 19 20 20 20 20 19
25 25 26 25 25 24 23 23 23 22 21 20 20 20 19 19 19 19 19 19 18 18 18 19 19 20 20 20 19 20 20 19 19
24 25 24 24 24 23 22 22 22 21 21 20 19 19 19 19 19 19 18 19 20 19 17 17 18 19 19 19 19 19 19 19 19
24 24 23 23 23 22 22 21 21 20 20 20 20 20 18 19 18 18 18 18 19 17 18 16 17 18 19 19 19 18 19 18 17
23 23 23 22 22 22 19 20 20 18 19 20 20 19 18 17 18 17 17 17 17 17 17 17 18 18 18 16 16 14 13 14 13
23 22 22 22 22 20 18 18 17 17 20 20 19 18 16 16 16 16 16 16 17 17 18 15 15 16 16 15 14 13 12 14 12
22 22 22 22 20 18 18 18 17 17 19 19 18 18 16 16 15 14 14 15 16 16 15 15 15 15 15 14 13 12 12 12 11
21 21 21 21 19 18 18 17 17 16 18 16 15 16 16 15 16 16 15 14 14 16 15 14 14 14 13 14 13 13 13 11 10
19 20 20 19 19 18 17 17 16 15 14 14 14 15 15 14 15 17 16 16 15 15 14 14 15 15 15 14 13 13 12 11 10
18 19 19 20 18 17 16 17 16 15 15 15 14 15 14 13 13 12 14 14 14 13 14 14 14 14 14 13 13 13 12 11 10
Height
1464 1467 1469 1478 1485 1493 1501 1508 1513 1518 1522 1524 1528 1532 1536 1540 1544 1550 1553 1557 1560 1562 1564 1565 1566 1567 1571 1573 1575 1577 1578 1579 1579
1458 1464 1467 1471 1479 1488 1495 1502 1508 1513 1517 1521 1524 1529 1532 1536 1541 1545 1549 1553 1556 1558 1561 1563 1565 1566 1567 1570 1571 1572 1574 1575 1575
1457 1463 1466 1468 1474 1482 1490 1498 1504 1509 1514 1517 1520 1526 1529 1533 1536 1539 1544 1548 1551 1554 1557 1558 1560 1562 1565 1567 1568 1569 1569 1570 1571
1455 1460 1463 1466 1470 1478 1486 1494 1499 1505 1510 1514 1518 1522 1526 1530 1532 1536 1538 1543 1546 1548 1552 1554 1555 1557 1560 1563 1564 1564 1564 1564 1566
1454 1461 1461 1463 1468 1474 1481 1489 1495 1500 1505 1510 1513 1517 1522 1525 1529 1533 1536 1538 1542 1544 1545 1548 1551 1553 1555 1557 1559 1560 1559 1560 1561
1453 1458 1459 1461 1466 1471 1478 1484 1490 1495 1500 1505 1510 1514 1517 1521 1525 1529 1533 1536 1538 1540 1542 1544 1547 1548 1549 1551 1553 1554 1554 1554 1555
1452 1455 1456 1459 1463 1469 1475 1481 1486 1492 1496 1501 1505 1509 1513 1516 1520 1524 1528 1531 1534 1536 1538 1540 1542 1544 1546 1547 1548 1549 1549 1549 1548
1451 1453 1455 1457 1461 1466 1472 1477 1482 1487 1492 1496 1501 1505 1507 1509 1514 1518 1522 1526 1529 1531 1534 1536 1538 1540 1541 1543 1544 1544 1543 1543 1543
1447 1450 1454 1457 1460 1464 1469 1473 1477 1482 1486 1490 1496 1499 1501 1505 1509 1513 1516 1519 1522 1525 1528 1530 1533 1535 1536 1536 1535 1534 1537 1538 1538
1451 1453 1452 1455 1458 1462 1466 1470 1474 1478 1482 1486 1490 1493 1497 1502 1505 1509 1512 1516 1519 1521 1523 1526 1526 1529 1530 1531 1529 1530 1531 1531 1531
1455 1452 1453 1454 1457 1459 1462 1466 1470 1474 1478 1482 1485 1489 1494 1498 1501 1503 1507 1511 1515 1517 1519 1522 1524 1523 1524 1525 1524 1525 1525 1525 1524
1456 1453 1452 1453 1455 1458 1460 1463 1466 1470 1474 1478 1482 1486 1489 1492 1496 1499 1502 1506 1509 1512 1514 1515 1519 1519 1519 1520 1520 1519 1519 1517 1515
1454 1452 1452 1452 1454 1456 1457 1461 1464 1467 1471 1475 1478 1482 1485 1489 1492 1494 1498 1499 1497 1501 1508 1512 1513 1514 1515 1515 1515 1513 1512 1511 1509
1453 1451 1451 1452 1453 1455 1457 1460 1463 1466 1469 1470 1472 1475 1477 1481 1486 1487 1489 1492 1494 1496 1501 1507 1510 1511 1511 1511 1511 1509 1506 1502 1499
1452 1450 1450 1451 1453 1455 1456 1459 1461 1463 1464 1467 1470 1474 1477 1480 1482 1483 1486 1488 1493 1498 1500 1502 1506 1508 1510 1510 1507 1504 1499 1493 1490
1451 1449 1449 1450 1452 1454 1454 1456 1458 1460 1462 1466 1469 1472 1475 1478 1480 1482 1485 1490 1492 1495 1496 1502 1507 1504 1509 1509 1506 1503 1495 1487 1482
1451 1449 1449 1449 1451 1453 1454 1456 1457 1460 1462 1465 1468 1470 1472 1475 1478 1480 1484 1488 1490 1493 1494 1503 1507 1504 1507 1506 1503 1498 1491 1483 1478
1451 1449 1448 1448 1450 1452 1453 1454 1456 1459 1461 1465 1468 1471 1473 1476 1479 1483 1485 1487 1488 1489 1493 1503 1506 1504 1504 1502 1500 1496 1487 1480 1475
1449 1447 1446 1446 1448 1450 1452 1454 1455 1459 1462 1466 1468 1470 1473 1476 1478 1478 1485 1485 1489 1492 1500 1502 1502 1502 1500 1500 1499 1493 1486 1480 1475
1443 1444 1443 1444 1445 1447 1449 1453 1455 1458 1462 1466 1467 1470 1473 1475 1479 1481 1483 1487 1491 1495 1499 1500 1502 1500 1498 1501 1498 1493 1487 1482 1477
Wind_Speed
10 8 17 25 31 33 31 29 28 27 27 27 26 25 27 30 29 23 21 21 19 17 15 13 12 12 12 15 14 13 12 11 12
10 6 8 21 30 33 33 32 30 30 30 28 27 26 26 28 29 28 24 24 23 18 17 16 14 12 12 13 14 14 14 14 15
8 6 7 16 27 33 34 33 31 29 29 29 28 27 26 26 26 28 28 28 29 22 23 22 18 15 16 16 16 17 19 16 15
6 4 8 16 25 31 33 32 31 30 29 28 27 27 26 25 25 25 26 25 25 29 23 22 23 23 16 17 17 18 21 19 18
4 6 9 18 24 30 32 32 32 30 30 28 28 28 30 28 25 24 23 23 23 23 25 24 26 24 22 21 19 20 20 18 17
6 8 10 19 24 30 32 32 32 31 31 30 26 27 29 27 25 24 24 23 23 24 23 23 20 21 24 24 22 23 23 24 22
7 8 12 20 24 29 31 31 31 31 32 30 30 28 28 29 27 26 24 24 24 23 24 23 22 22 21 20 20 21 22 22 25
3 5 12 21 23 28 29 29 31 31 31 32 31 32 28 32 30 28 26 25 26 24 23 23 22 21 21 21 21 20 24 25 25
7 4 10 16 20 24 28 30 31 32 32 32 33 34 32 30 32 30 30 29 28 26 22 21 20 20 21 22 24 27 25 24 24
6 6 7 13 17 21 25 27 28 28 31 30 32 34 33 29 30 28 27 26 27 26 23 20 21 20 20 21 20 20 22 22 27
7 4 6 12 15 18 21 23 25 25 25 28 31 30 27 26 25 25 24 23 22 21 21 20 19 22 21 21 25 25 25 25 28
7 5 4 11 14 16 18 20 22 23 22 23 23 23 24 23 24 23 23 22 20 16 22 22 22 22 22 23 21 25 26 27 30
8 5 3 9 13 15 16 17 19 21 20 20 19 19 20 20 22 23 23 28 28 27 22 18 14 16 17 19 19 25 28 30 31
9 4 5 9 13 13 15 16 18 19 20 25 26 26 27 28 27 30 30 28 25 22 16 12 12 11 13 15 19 23 29 33 32
9 5 6 11 14 15 14 15 18 19 20 23 22 23 24 25 28 28 28 24 19 16 13 11 8 8 9 9 17 20 25 30 31
9 5 7 11 15 15 14 13 14 16 17 18 19 19 20 23 27 23 20 15 15 13 10 4 4 2 4 7 9 12 24 27 22
11 6 8 12 14 15 15 14 13 13 18 18 16 14 15 18 18 18 19 16 12 9 7 2 4 1 2 5 9 14 20 18 17
11 8 8 12 12 15 17 17 17 18 21 22 20 22 21 20 16 13 13 12 15 7 7 12 11 6 1 3 8 14 16 15 15
12 10 8 13 14 16 18 17 19 21 22 21 21 23 23 20 19 19 15 13 10 8 14 14 8 6 5 5 11 18 23 13 12
13 13 11 17 16 18 21 20 21 23 22 22 21 20 21 21 17 16 19 21 21 21 16 11 10 10 12 10 10 13 23 27 21
Wind_Direction
223 224 199 206 203 201 198 198 196 196 197 194 197 200 205 207 205 207 203 210 206 216 228 229 227 233 226 231 227 243 241 244 248
205 207 234 194 200 200 196 198 197 196 200 197 199 201 207 212 215 209 215 214 217 214 218 226 235 224 228 236 243 236 240 238 243
194 191 221 203 198 198 198 198 197 198 199 199 199 200 205 210 213 219 211 217 220 226 228 226 217 227 236 237 236 237 243 239 263
232 189 217 202 196 196 197 197 197 198 199 200 199 201 207 207 211 215 219 217 224 228 226 224 234 222 224 231 236 242 249 248 239
214 225 233 196 194 194 195 197 197 198 199 200 202 204 205 213 214 213 219 220 222 226 226 226 228 237 233 234 230 241 249 252 248
194 237 209 189 190 192 193 196 197 198 198 199 203 204 209 207 210 214 214 223 221 226 229 229 228 237 238 239 240 245 247 249 252
306 208 202 189 190 192 194 194 195 198 199 200 200 203 206 208 210 213 216 216 226 220 230 231 232 231 239 244 243 244 250 254 259
279 239 204 192 192 190 192 193 195 198 201 200 201 206 208 213 215 213 214 219 221 228 224 230 231 234 235 240 244 249 252 250 256
360 293 210 203 198 194 195 196 196 198 198 205 203 208 215 214 219 218 216 216 221 225 224 225 229 234 239 241 240 245 249 251 251
318 303 210 202 201 198 199 200 201 201 201 201 205 211 213 210 219 219 217 217 220 224 225 227 235 236 241 249 248 259 256 260 257
326 284 231 201 199 197 197 199 202 201 201 200 205 207 209 210 210 212 211 213 214 221 225 232 232 236 243 248 257 264 267 267 269
334 318 235 200 195 192 190 191 193 193 194 197 200 205 206 209 202 208 206 209 211 214 223 222 229 237 242 250 255 267 273 278 281
323 317 222 191 187 183 178 178 181 181 182 187 195 199 203 201 202 204 195 202 207 215 217 219 229 238 246 257 270 279 281 282 280
319 292 223 185 183 178 174 173 175 173 177 188 194 195 194 194 195 198 197 204 217 221 201 216 215 245 265 278 281 280 283 281 283
322 290 203 188 185 180 174 170 176 174 190 195 200 204 200 199 199 206 209 218 214 198 197 214 229 260 283 281 291 300 296 296 296
327 293 210 191 187 188 174 176 179 179 195 197 206 209 206 210 216 221 221 204 207 191 178 148 219 247 285 290 299 296 294 303 301
317 304 220 196 192 190 175 172 171 181 177 174 178 181 187 197 195 184 175 174 161 157 118 173 246 202 276 310 322 320 309 318 320
302 301 230 203 201 191 173 164 163 164 164 158 157 154 151 148 147 155 152 143 145 161 181 200 201 194 93 16 1 342 342 334 336
287 283 240 205 200 196 177 174 169 168 164 163 164 162 165 164 162 159 161 163 203 196 191 189 180 152 112 58 38 31 26 360 358
284 271 247 219 206 201 191 185 177 176 175 177 172 164 166 165 166 168 172 175 175 166 160 150 131 114 94 76 54 38 35 25 25